TimeEDT,TemperatureF,Dew PointF,Humidity,Sea Level PressureIn,VisibilityMPH,Wind Direction,Wind SpeedMPH,Gust SpeedMPH,PrecipitationIn,Events,Conditions,WindDirDegrees,DateUTC
12:51 AM,64.0,57.9,80,30.01,10.0,Calm,Calm,-,N/A,,Clear,0,2013-08-07 04:51:00
1:51 AM,66.0,57.9,75,30.00,10.0,Calm,Calm,-,N/A,,Clear,0,2013-08-07 05:51:00
2:51 AM,64.0,57.9,80,30.01,10.0,Calm,Calm,-,N/A,,Clear,0,2013-08-07 06:51:00
3:51 AM,64.9,57.9,78,30.00,10.0,Calm,Calm,-,N/A,,Mostly Cloudy,0,2013-08-07 07:51:00
4:51 AM,64.0,59.0,84,29.99,10.0,Calm,Calm,-,N/A,,Mostly Cloudy,0,2013-08-07 08:51:00
5:51 AM,64.0,59.0,84,29.99,10.0,Calm,Calm,-,N/A,,Mostly Cloudy,0,2013-08-07 09:51:00
6:51 AM,63.0,59.0,87,29.99,9.0,Calm,Calm,-,N/A,,Overcast,0,2013-08-07 10:51:00
7:51 AM,64.9,61.0,87,29.98,10.0,SSE,4.6,-,N/A,,Overcast,160,2013-08-07 11:51:00
8:51 AM,68.0,62.1,81,30.00,10.0,SE,3.5,-,N/A,,Overcast,130,2013-08-07 12:51:00
9:51 AM,71.1,63.0,75,30.00,10.0,ESE,5.8,-,N/A,,Overcast,120,2013-08-07 13:51:00
10:51 AM,73.9,64.0,71,30.00,10.0,SSE,3.5,-,N/A,,Overcast,150,2013-08-07 14:51:00
11:51 AM,75.9,64.0,67,30.00,10.0,South,5.8,-,N/A,,Mostly Cloudy,190,2013-08-07 15:51:00
12:51 PM,80.1,66.0,62,29.98,10.0,South,9.2,-,N/A,,Mostly Cloudy,190,2013-08-07 16:51:00
1:51 PM,82.0,64.9,56,29.98,10.0,SSW,8.1,-,N/A,,Mostly Cloudy,200,2013-08-07 17:51:00
2:51 PM,82.0,66.0,58,29.96,10.0,SW,10.4,-,N/A,,Overcast,220,2013-08-07 18:51:00
3:51 PM,82.9,66.0,56,29.95,10.0,SSW,9.2,-,N/A,,Overcast,210,2013-08-07 19:51:00
4:12 PM,82.4,66.2,58,29.96,10.0,WSW,4.6,-,N/A,Thunderstorm,Thunderstorm,240,2013-08-07 20:12:00
4:44 PM,80.6,68.0,65,29.95,8.0,SSW,10.4,-,0.00,Rain,Light Rain,210,2013-08-07 20:44:00
4:51 PM,77.0,68.0,74,29.96,4.0,SSW,11.5,-,0.01,Rain,Light Rain,210,2013-08-07 20:51:00
4:54 PM,75.2,68.0,78,29.96,2.5,SW,8.1,-,0.00,Rain-Thunderstorm,Thunderstorms and Rain,230,2013-08-07 20:54:00
5:10 PM,73.4,66.2,78,29.96,6.0,NNW,9.2,-,0.09,Rain-Thunderstorm,Light Thunderstorms and Rain,330,2013-08-07 21:10:00
5:51 PM,71.1,64.9,81,29.95,9.0,NNE,8.1,-,0.09,Rain-Thunderstorm,Light Thunderstorms and Rain,30,2013-08-07 21:51:00
6:51 PM,70.0,66.0,87,29.99,8.0,SSW,6.9,-,0.03,,Overcast,210,2013-08-07 22:51:00
7:51 PM,70.0,66.9,90,29.97,8.0,ESE,5.8,-,N/A,,Overcast,120,2013-08-07 23:51:00
8:51 PM,69.1,66.0,90,29.98,10.0,SSE,5.8,-,N/A,,Overcast,150,2013-08-08 00:51:00
9:22 PM,69.8,66.2,88,30.00,10.0,SSE,9.2,-,N/A,,Overcast,150,2013-08-08 01:22:00
9:51 PM,68.0,64.9,90,30.01,10.0,SSE,8.1,-,N/A,,Overcast,150,2013-08-08 01:51:00
10:51 PM,68.0,64.9,90,29.99,10.0,South,6.9,-,N/A,,Overcast,170,2013-08-08 02:51:00
11:51 PM,68.0,64.9,90,30.00,10.0,South,4.6,-,N/A,,Overcast,190,2013-08-08 03:51:00